Odiham, United Kingdom

12:06 PM BST on May 29, 2017 (GMT +0100)
Odiham Air Base

Weather History for EGVO - November, 2013

Change the Weather History Date:

Thursday, November 7, 2013

  Actual Average Record
Temperature  
Mean Temperature 48 °F -  
Max Temperature 51 °F - - ()
Min Temperature 44 °F - - ()
Degree Days  
Heating Degree Days 18    
Moisture  
Dew Point 44 °F    
Average Humidity 84    
Maximum Humidity 94    
Minimum Humidity 60    
Precipitation  
Precipitation 0.00 in - - ()
Sea Level Pressure  
Sea Level Pressure 29.72 in    
Wind  
Wind Speed 9 mph ()    
Max Wind Speed 22 mph    
Max Gust Speed -    
Visibility 9.4 miles    
Events Rain    
T = Trace of Precipitation, MM = Missing Value Source: Averaged Metar Reports

Daily Weather History Graph

Daily Weather History Graph

Search for Another Location

Airport or City:

Trip Planner

Search our weather history database for the weather conditions in past years. The results will help you decide how hot, cold, wet, or windy it might be!

Date:

Astronomy

Nov. 07, 2013 Rise Set
Actual Time 7:07 AM GMT 4:27 PM GMT
Civil Twilight 6:31 AM GMT 5:02 PM GMT
Nautical Twilight 5:51 AM GMT 5:42 PM GMT
Astronomical Twilight 5:13 AM GMT 6:21 PM GMT
Moon 11:10 AM GMT (11/7) 8:15 PM GMT (11/7)
Length of Visible Light 10h 31m
Length of Day
9h 19m
Waxing Crescent, 20% of the Moon is Illuminated
Nov 7
Waxing Crescent
Nov 10
First Quarter
Nov 17
Full
Nov 25
Last Quarter
Dec 3
New

Hourly Weather History & Observations

Time (GMT) Temp. Windchill Dew Point Humidity Pressure Visibility Wind Dir Wind Speed Gust Speed Precip Events Conditions
12:00 AM 57 °F - 54 °F 88% 29.55 in 9 mi SW 21.9 mph - - Rain Light Rain
12:50 AM 57.2 °F - 53.6 °F 88% 29.56 in 6.2 mi WSW 16.1 mph - N/A Rain Light Rain
1:50 AM 53.6 °F - 50.0 °F 88% 29.59 in 6.2 mi West 12.7 mph - N/A Rain Light Rain
2:50 AM 51.8 °F - 48.2 °F 88% 29.62 in 6.2 mi West 8.1 mph - N/A   Overcast
3:50 AM 51.8 °F - 48.2 °F 88% 29.62 in 6.2 mi West 6.9 mph - N/A   Mostly Cloudy
4:50 AM 50.0 °F - 48.2 °F 94% 29.65 in 6.2 mi WSW 5.8 mph - N/A   Overcast
5:50 AM 50.0 °F - 46.4 °F 87% 29.68 in - WSW 9.2 mph - N/A   Clear
6:00 AM 49 °F - 47 °F 88% 29.69 in 31 mi WSW 9.2 mph - -   Partly Cloudy
6:50 AM 48.2 °F - 46.4 °F 93% 29.71 in - WSW 8.1 mph - N/A   Clear
7:50 AM 48.2 °F - 44.6 °F 87% 29.71 in - SW 8.1 mph - N/A   Clear
8:50 AM 46.4 °F 42.4 °F 44.6 °F 93% 29.74 in 6.2 mi SW 8.1 mph - N/A   Mostly Cloudy
9:00 AM 47 °F - 44 °F 87% 29.76 in 19 mi SW 8.1 mph - -   Scattered Clouds
9:50 AM 48.2 °F - 44.6 °F 87% 29.77 in - SW 8.1 mph - N/A   Clear
10:50 AM 50.0 °F - 41.0 °F 71% 29.77 in - West 5.8 mph - N/A   Clear
11:50 AM 50.0 °F - 41.0 °F 71% 29.77 in - West 5.8 mph - N/A   Clear
12:00 PM 50 °F - 40 °F 60% 29.79 in 22 mi West 5.8 mph - -   Overcast
12:50 PM 50.0 °F - 48.2 °F 94% 29.77 in - SSW 5.8 mph - N/A   Clear
1:50 PM 50.0 °F - 42.8 °F 76% 29.74 in - SSW 4.6 mph - N/A   Clear
2:50 PM 50.0 °F - 42.8 °F 76% 29.74 in - SSW 4.6 mph - N/A   Clear
3:00 PM 50 °F - 42 °F 67% 29.77 in 25 mi SSW 4.6 mph - -   Partly Cloudy
3:50 PM 48.2 °F - 42.8 °F 82% 29.74 in - SSW 5.8 mph - N/A   Clear
4:50 PM 46.4 °F 44.3 °F 42.8 °F 87% 29.77 in - SSW 4.6 mph - N/A   Clear
5:50 PM 44.6 °F 40.7 °F 41.0 °F 87% 29.74 in - SSW 6.9 mph - N/A   Clear
6:00 PM 45 °F - 42 °F 84% 29.78 in 22 mi SSW 6.9 mph - -   Overcast
6:50 PM 44.6 °F 39.7 °F 42.8 °F 93% 29.77 in - SSW 9.2 mph - N/A   Clear
7:50 PM 46.4 °F 41.9 °F 41.0 °F 81% 29.77 in - SW 9.2 mph - N/A   Clear
8:50 PM 44.6 °F 39.2 °F 41.0 °F 87% 29.77 in - SSW 10.4 mph - N/A   Clear
9:00 PM 45 °F - 41 °F 82% 29.79 in 19 mi SSW 10.4 mph - -   Overcast
9:50 PM 44.6 °F 41.4 °F 41.0 °F 87% 29.77 in - SW 5.8 mph - N/A   Clear
10:50 PM 44.6 °F 40.2 °F 41.0 °F 87% 29.77 in - SW 8.1 mph - N/A   Clear
11:50 PM 44.6 °F 40.7 °F 41.0 °F 87% 29.77 in - SW 6.9 mph - N/A   Clear